Time,TemperatureF,DewpointF,PressureIn,WindDirection,WindDirectionDegrees,WindSpeedMPH,WindSpeedGustMPH,Humidity,HourlyPrecipIn,Conditions,Clouds,dailyrainin,SolarRadiationWatts/m^2,SoftwareType,DateUTC
2013-06-03 00:02:00,45.0,39.0,-100.00,SW,223,9.0,34.0,80,0.02,,,-99.99,0.000000,,2013-06-03 06:02:00,
2013-06-03 00:12:00,45.0,39.0,-100.00,SW,223,9.0,34.0,80,0.02,,,-99.99,0.000000,,2013-06-03 06:12:00,
2013-06-03 00:22:00,45.0,39.0,-100.00,SW,223,9.0,34.0,80,0.02,,,-99.99,0.000000,,2013-06-03 06:22:00,
2013-06-03 00:32:00,45.0,39.0,-100.00,SW,223,9.0,34.0,80,0.02,,,-99.99,0.000000,,2013-06-03 06:32:00,
2013-06-03 00:40:00,44.0,39.0,-100.00,SW,236,11.0,22.0,82,0.01,,,0.05,0.000000,,2013-06-03 06:40:00,
2013-06-03 01:02:00,44.0,39.0,-100.00,SW,236,11.0,22.0,82,0.01,,,0.05,0.000000,,2013-06-03 07:02:00,
2013-06-03 01:12:00,44.0,39.0,-100.00,SW,236,11.0,22.0,82,0.01,,,0.05,0.000000,,2013-06-03 07:12:00,
2013-06-03 01:22:00,44.0,39.0,-100.00,SW,236,11.0,22.0,82,0.01,,,0.05,0.000000,,2013-06-03 07:22:00,
2013-06-03 01:32:00,44.0,39.0,-100.00,SW,236,11.0,22.0,82,0.01,,,0.05,0.000000,,2013-06-03 07:32:00,
2013-06-03 01:40:00,43.0,37.0,-100.00,SW,229,17.0,33.0,80,0.02,,,0.07,0.000000,,2013-06-03 07:40:00,
2013-06-03 02:02:00,43.0,37.0,-100.00,SW,229,17.0,33.0,80,0.02,,,0.07,0.000000,,2013-06-03 08:02:00,
2013-06-03 02:12:00,43.0,37.0,-100.00,SW,229,17.0,33.0,80,0.02,,,0.07,0.000000,,2013-06-03 08:12:00,
2013-06-03 02:22:00,43.0,37.0,-100.00,SW,229,17.0,33.0,80,0.02,,,0.07,0.000000,,2013-06-03 08:22:00,
2013-06-03 02:32:00,43.0,37.0,-100.00,SW,229,17.0,33.0,80,0.02,,,0.07,0.000000,,2013-06-03 08:32:00,
2013-06-03 02:40:00,41.0,34.0,-100.00,SW,230,12.0,24.0,77,0.00,,,0.07,0.000000,,2013-06-03 08:40:00,
2013-06-03 03:02:00,41.0,34.0,-100.00,SW,230,12.0,24.0,77,0.00,,,0.07,0.000000,,2013-06-03 09:02:00,
2013-06-03 03:12:00,41.0,34.0,-100.00,SW,230,12.0,24.0,77,0.00,,,0.07,0.000000,,2013-06-03 09:12:00,
2013-06-03 03:22:00,41.0,34.0,-100.00,SW,230,12.0,24.0,77,0.00,,,0.07,0.000000,,2013-06-03 09:22:00,
2013-06-03 03:33:00,41.0,34.0,-100.00,SW,230,12.0,24.0,77,0.00,,,0.07,0.000000,,2013-06-03 09:33:00,
2013-06-03 03:40:00,41.0,35.0,-100.00,WSW,257,8.0,25.0,80,0.00,,,0.07,0.000000,,2013-06-03 09:40:00,
2013-06-03 04:03:00,41.0,35.0,-100.00,WSW,257,8.0,25.0,80,0.00,,,0.07,0.000000,,2013-06-03 10:03:00,
2013-06-03 04:12:00,41.0,35.0,-100.00,WSW,257,8.0,25.0,80,0.00,,,0.07,0.000000,,2013-06-03 10:12:00,
2013-06-03 04:22:00,41.0,35.0,-100.00,WSW,257,8.0,25.0,80,0.00,,,0.07,0.000000,,2013-06-03 10:22:00,
2013-06-03 04:33:00,41.0,35.0,-100.00,WSW,257,8.0,25.0,80,0.00,,,0.07,0.000000,,2013-06-03 10:33:00,
2013-06-03 04:40:00,39.0,31.0,-100.00,SW,220,13.0,23.0,73,0.00,,,0.07,0.000000,,2013-06-03 10:40:00,
2013-06-03 05:02:00,39.0,31.0,-100.00,SW,220,13.0,23.0,73,0.00,,,0.07,0.000000,,2013-06-03 11:02:00,
2013-06-03 05:12:00,39.0,31.0,-100.00,SW,220,13.0,23.0,73,0.00,,,0.07,0.000000,,2013-06-03 11:12:00,
2013-06-03 05:22:00,39.0,31.0,-100.00,SW,220,13.0,23.0,73,0.00,,,0.07,0.000000,,2013-06-03 11:22:00,
2013-06-03 05:32:00,39.0,31.0,-100.00,SW,220,13.0,23.0,73,0.00,,,0.07,0.000000,,2013-06-03 11:32:00,
2013-06-03 05:40:00,36.0,28.0,-100.00,SSW,196,14.0,23.0,72,0.00,,,0.07,0.000000,,2013-06-03 11:40:00,
2013-06-03 06:02:00,36.0,28.0,-100.00,SSW,196,14.0,23.0,72,0.00,,,0.07,0.000000,,2013-06-03 12:02:00,
2013-06-03 06:12:00,36.0,28.0,-100.00,SSW,196,14.0,23.0,72,0.00,,,0.07,0.000000,,2013-06-03 12:12:00,
2013-06-03 06:22:00,36.0,28.0,-100.00,SSW,196,14.0,23.0,72,0.00,,,0.07,0.000000,,2013-06-03 12:22:00,
2013-06-03 06:32:00,36.0,28.0,-100.00,SSW,196,14.0,23.0,72,0.00,,,0.07,0.000000,,2013-06-03 12:32:00,
2013-06-03 06:40:00,35.0,25.0,-100.00,SSW,199,16.0,28.0,67,0.00,,,0.07,53.000000,,2013-06-03 12:40:00,
2013-06-03 07:02:00,35.0,25.0,-100.00,SSW,199,16.0,28.0,67,0.00,,,0.07,53.000000,,2013-06-03 13:02:00,
2013-06-03 07:12:00,35.0,25.0,-100.00,SSW,199,16.0,28.0,67,0.00,,,0.07,53.000000,,2013-06-03 13:12:00,
2013-06-03 07:22:00,35.0,25.0,-100.00,SSW,199,16.0,28.0,67,0.00,,,0.07,53.000000,,2013-06-03 13:22:00,
2013-06-03 07:32:00,35.0,25.0,-100.00,SSW,199,16.0,28.0,67,0.00,,,0.07,53.000000,,2013-06-03 13:32:00,
2013-06-03 07:40:00,38.0,23.0,-100.00,SW,216,16.0,28.0,54,0.00,,,0.07,281.000000,,2013-06-03 13:40:00,
2013-06-03 08:02:00,38.0,23.0,-100.00,SW,216,16.0,28.0,54,0.00,,,0.07,281.000000,,2013-06-03 14:02:00,
2013-06-03 08:12:00,38.0,23.0,-100.00,SW,216,16.0,28.0,54,0.00,,,0.07,281.000000,,2013-06-03 14:12:00,
2013-06-03 08:22:00,38.0,23.0,-100.00,SW,216,16.0,28.0,54,0.00,,,0.07,281.000000,,2013-06-03 14:22:00,
2013-06-03 08:32:00,38.0,23.0,-100.00,SW,216,16.0,28.0,54,0.00,,,0.07,281.000000,,2013-06-03 14:32:00,
2013-06-03 08:40:00,40.0,22.0,-100.00,SW,231,20.0,40.0,48,0.00,,,0.07,501.000000,,2013-06-03 14:40:00,
2013-06-03 09:02:00,40.0,22.0,-100.00,SW,231,20.0,40.0,48,0.00,,,0.07,501.000000,,2013-06-03 15:02:00,
2013-06-03 09:12:00,40.0,22.0,-100.00,SW,231,20.0,40.0,48,0.00,,,0.07,501.000000,,2013-06-03 15:12:00,
2013-06-03 09:22:00,40.0,22.0,-100.00,SW,231,20.0,40.0,48,0.00,,,0.07,501.000000,,2013-06-03 15:22:00,
2013-06-03 09:33:00,40.0,22.0,-100.00,SW,231,20.0,40.0,48,0.00,,,0.07,501.000000,,2013-06-03 15:33:00,
2013-06-03 09:40:00,42.0,21.0,-100.00,WSW,241,18.0,39.0,43,0.00,,,0.07,722.000000,,2013-06-03 15:40:00,
2013-06-03 10:03:00,42.0,21.0,-100.00,WSW,241,18.0,39.0,43,0.00,,,0.07,722.000000,,2013-06-03 16:03:00,
2013-06-03 10:12:00,42.0,21.0,-100.00,WSW,241,18.0,39.0,43,0.00,,,0.07,722.000000,,2013-06-03 16:12:00,
2013-06-03 10:23:00,42.0,21.0,-100.00,WSW,241,18.0,39.0,43,0.00,,,0.07,722.000000,,2013-06-03 16:23:00,
2013-06-03 10:33:00,42.0,21.0,-100.00,WSW,241,18.0,39.0,43,0.00,,,0.07,722.000000,,2013-06-03 16:33:00,
2013-06-03 10:40:00,42.0,22.0,-100.00,SW,230,10.0,41.0,44,0.00,,,0.07,840.000000,,2013-06-03 16:40:00,
2013-06-03 11:02:00,42.0,22.0,-100.00,SW,230,10.0,41.0,44,0.00,,,0.07,840.000000,,2013-06-03 17:02:00,
2013-06-03 11:12:00,42.0,22.0,-100.00,SW,230,10.0,41.0,44,0.00,,,0.07,840.000000,,2013-06-03 17:12:00,
2013-06-03 11:22:00,42.0,22.0,-100.00,SW,230,10.0,41.0,44,0.00,,,0.07,840.000000,,2013-06-03 17:22:00,
2013-06-03 11:33:00,42.0,22.0,-100.00,SW,230,10.0,41.0,44,0.00,,,0.07,840.000000,,2013-06-03 17:33:00,
2013-06-03 11:40:00,47.0,23.0,-100.00,WSW,253,8.0,20.0,39,0.00,,,0.07,730.000000,,2013-06-03 17:40:00,
2013-06-03 12:02:00,47.0,23.0,-100.00,WSW,253,8.0,20.0,39,0.00,,,0.07,730.000000,,2013-06-03 18:02:00,
2013-06-03 12:12:00,47.0,23.0,-100.00,WSW,253,8.0,20.0,39,0.00,,,0.07,730.000000,,2013-06-03 18:12:00,
2013-06-03 12:22:00,47.0,23.0,-100.00,WSW,253,8.0,20.0,39,0.00,,,0.07,730.000000,,2013-06-03 18:22:00,
2013-06-03 12:32:00,47.0,23.0,-100.00,WSW,253,8.0,20.0,39,0.00,,,0.07,730.000000,,2013-06-03 18:32:00,
2013-06-03 12:40:00,50.0,25.0,-100.00,West,265,14.0,27.0,37,0.00,,,-99.99,1164.000000,,2013-06-03 18:40:00,
2013-06-03 13:03:00,50.0,25.0,-100.00,West,265,14.0,27.0,37,0.00,,,-99.99,1164.000000,,2013-06-03 19:03:00,
2013-06-03 13:32:00,50.0,25.0,-100.00,West,265,14.0,27.0,37,0.00,,,-99.99,1164.000000,,2013-06-03 19:32:00,
2013-06-03 13:40:00,52.0,26.0,-100.00,WSW,257,13.0,29.0,36,0.00,,,0.07,1233.000000,,2013-06-03 19:40:00,
2013-06-03 14:02:00,52.0,26.0,-100.00,WSW,257,13.0,29.0,36,0.00,,,0.07,1233.000000,,2013-06-03 20:02:00,
2013-06-03 14:40:00,52.0,26.0,-100.00,WSW,245,14.0,28.0,36,0.00,,,0.07,1279.000000,,2013-06-03 20:40:00,
2013-06-03 15:02:00,52.0,26.0,-100.00,WSW,245,14.0,28.0,36,0.00,,,0.07,1279.000000,,2013-06-03 21:02:00,
2013-06-03 15:40:00,52.0,27.0,-100.00,WSW,238,13.0,30.0,38,0.00,,,0.07,1118.000000,,2013-06-03 21:40:00,
2013-06-03 16:03:00,52.0,27.0,-100.00,WSW,238,13.0,30.0,38,0.00,,,0.07,1118.000000,,2013-06-03 22:03:00,
2013-06-03 16:12:00,52.0,27.0,-100.00,WSW,238,13.0,30.0,38,0.00,,,0.07,1118.000000,,2013-06-03 22:12:00,
2013-06-03 16:22:00,52.0,27.0,-100.00,WSW,238,13.0,30.0,38,0.00,,,0.07,1118.000000,,2013-06-03 22:22:00,
2013-06-03 16:32:00,52.0,27.0,-100.00,WSW,238,13.0,30.0,38,0.00,,,0.07,1118.000000,,2013-06-03 22:32:00,
2013-06-03 16:40:00,50.0,28.0,-100.00,WSW,249,14.0,26.0,42,0.00,,,0.07,967.000000,,2013-06-03 22:40:00,
2013-06-03 17:02:00,50.0,28.0,-100.00,WSW,249,14.0,26.0,42,0.00,,,0.07,967.000000,,2013-06-03 23:02:00,
2013-06-03 17:12:00,50.0,28.0,-100.00,WSW,249,14.0,26.0,42,0.00,,,0.07,967.000000,,2013-06-03 23:12:00,
2013-06-03 17:22:00,50.0,28.0,-100.00,WSW,249,14.0,26.0,42,0.00,,,0.07,967.000000,,2013-06-03 23:22:00,
2013-06-03 17:32:00,50.0,28.0,-100.00,WSW,249,14.0,26.0,42,0.00,,,0.07,967.000000,,2013-06-03 23:32:00,
2013-06-03 17:40:00,48.0,29.0,-100.00,SSW,210,11.0,30.0,47,0.00,,,0.07,724.000000,,2013-06-03 23:40:00,
2013-06-03 18:02:00,48.0,29.0,-100.00,SSW,210,11.0,30.0,47,0.00,,,0.07,724.000000,,2013-06-04 00:02:00,
2013-06-03 18:12:00,48.0,29.0,-100.00,SSW,210,11.0,30.0,47,0.00,,,0.07,724.000000,,2013-06-04 00:12:00,
2013-06-03 18:22:00,48.0,29.0,-100.00,SSW,210,11.0,30.0,47,0.00,,,0.07,724.000000,,2013-06-04 00:22:00,
2013-06-03 18:32:00,48.0,29.0,-100.00,SSW,210,11.0,30.0,47,0.00,,,0.07,724.000000,,2013-06-04 00:32:00,
2013-06-03 18:40:00,45.0,32.0,-100.00,West,280,8.0,22.0,61,0.00,,,0.07,338.000000,,2013-06-04 00:40:00,
2013-06-03 19:02:00,45.0,32.0,-100.00,West,280,8.0,22.0,61,0.00,,,0.07,338.000000,,2013-06-04 01:02:00,
2013-06-03 19:12:00,45.0,32.0,-100.00,West,280,8.0,22.0,61,0.00,,,0.07,338.000000,,2013-06-04 01:12:00,
2013-06-03 19:22:00,45.0,32.0,-100.00,West,280,8.0,22.0,61,0.00,,,0.07,338.000000,,2013-06-04 01:22:00,
2013-06-03 19:32:00,45.0,32.0,-100.00,West,280,8.0,22.0,61,0.00,,,0.07,338.000000,,2013-06-04 01:32:00,
2013-06-03 19:40:00,38.0,32.0,-100.00,SW,228,8.0,17.0,79,0.00,,,0.07,140.000000,,2013-06-04 01:40:00,
2013-06-03 20:02:00,38.0,32.0,-100.00,SW,228,8.0,17.0,79,0.00,,,0.07,140.000000,,2013-06-04 02:02:00,
2013-06-03 20:12:00,38.0,32.0,-100.00,SW,228,8.0,17.0,79,0.00,,,0.07,140.000000,,2013-06-04 02:12:00,
2013-06-03 20:21:00,38.0,32.0,-100.00,SW,228,8.0,17.0,79,0.00,,,0.07,140.000000,,2013-06-04 02:21:00,
2013-06-03 20:32:00,38.0,32.0,-100.00,SW,228,8.0,17.0,79,0.00,,,0.07,140.000000,,2013-06-04 02:32:00,
2013-06-03 20:40:00,39.0,30.0,-100.00,WNW,299,4.0,14.0,71,0.00,,,-99.99,42.000000,,2013-06-04 02:40:00,
2013-06-03 21:02:00,39.0,30.0,-100.00,WNW,299,4.0,14.0,71,0.00,,,-99.99,42.000000,,2013-06-04 03:02:00,
2013-06-03 21:12:00,39.0,30.0,-100.00,WNW,299,4.0,14.0,71,0.00,,,-99.99,42.000000,,2013-06-04 03:12:00,
2013-06-03 21:22:00,39.0,30.0,-100.00,WNW,299,4.0,14.0,71,0.00,,,-99.99,42.000000,,2013-06-04 03:22:00,
2013-06-03 21:32:00,39.0,30.0,-100.00,WNW,299,4.0,14.0,71,0.00,,,-99.99,42.000000,,2013-06-04 03:32:00,
2013-06-03 21:40:00,38.0,31.0,-100.00,NNW,330,1.0,18.0,77,0.00,,,0.06,3.000000,,2013-06-04 03:40:00,
2013-06-03 22:03:00,38.0,31.0,-100.00,NNW,330,1.0,18.0,77,0.00,,,0.06,3.000000,,2013-06-04 04:03:00,
2013-06-03 22:13:00,38.0,31.0,-100.00,NNW,330,1.0,18.0,77,0.00,,,0.06,3.000000,,2013-06-04 04:13:00,
2013-06-03 22:23:00,38.0,31.0,-100.00,NNW,330,1.0,18.0,77,0.00,,,0.06,3.000000,,2013-06-04 04:23:00,
2013-06-03 22:33:00,38.0,31.0,-100.00,NNW,330,1.0,18.0,77,0.00,,,0.06,3.000000,,2013-06-04 04:33:00,
2013-06-03 22:40:00,39.0,29.0,-100.00,West,264,5.0,12.0,66,0.00,,,0.05,0.000000,,2013-06-04 04:40:00,
2013-06-03 23:02:00,39.0,29.0,-100.00,West,264,5.0,12.0,66,0.00,,,0.05,0.000000,,2013-06-04 05:02:00,
2013-06-03 23:12:00,39.0,29.0,-100.00,West,264,5.0,12.0,66,0.00,,,0.05,0.000000,,2013-06-04 05:12:00,
2013-06-03 23:22:00,39.0,29.0,-100.00,West,264,5.0,12.0,66,0.00,,,0.05,0.000000,,2013-06-04 05:22:00,
2013-06-03 23:32:00,39.0,29.0,-100.00,West,264,5.0,12.0,66,0.00,,,0.05,0.000000,,2013-06-04 05:32:00,
2013-06-03 23:40:00,36.0,26.0,-100.00,WSW,250,4.0,10.0,67,0.00,,,0.03,0.000000,,2013-06-04 05:40:00,